Terug naar catalogus

ONEWEB-0544

ActiefCommunicatiePO
NORAD 55144·PAYLOAD·🇬🇧 United Kingdom

Gelanceerd Jan 10, 2023 vanaf Cape Canaveral Space Force Station

Loading…

Volgende Passages (komende 24 uur)

TLE

VersSource: CelesTrak SupGP

Epoch: Sep 14, 2026, 13:31 UTC

1 55144C 23004E   26257.56336065  .00003776  00000+0  95891-2 0  2577
2 55144  87.9163 317.7079 0001834  93.1983  19.4307 13.18685168    10

Volg ONEWEB-0544 in realtime met AllMySat

Download on the App Store